[TLELIST] Archives

 

[list_settings.list_name] Current TLEs

November 5th 2013 PST

HST 1 20580U 90037B 13307.77192774 .00003143 00000-0 20926-3 0 3674 2 20580 028.4710 077.4740 0003567 042.2146 104.0922 15.04107775 90732 ISS (ZARYA) 1 25544U 98067A 13309.43517318 .00012295 00000-0 22430-3 0 9542 2 25544 051.6482 128.5250 0001443 115.3924 328.6793 15.49842381856617 CXO 1 25867U 99040B 13310.73349126 -.00000277 00000-0 00000+0 0 9719 2 25867 076.1841 331.4389 8417843 276.3986 359.5833 00.37801829 11077 ____________________________________________________________________ These 2-Line ...Continue Reading

[list_settings.list_name] Current TLEs

November 4th 2013 PST

HST 1 20580U 90037B 13307.77192774 .00003143 00000-0 20926-3 0 3674 2 20580 028.4710 077.4740 0003567 042.2146 104.0922 15.04107775 90732 ISS (ZARYA) 1 25544U 98067A 13308.52515006 .00014648 00000-0 26575-3 0 9473 2 25544 051.6485 133.0320 0001464 114.5351 288.8315 15.49827659856479 CXO 1 25867U 99040B 13310.73349126 -.00000277 00000-0 00000+0 0 9719 2 25867 076.1841 331.4389 8417843 276.3986 359.5833 00.37801829 11077 ____________________________________________________________________ These 2-Line ...Continue Reading

[list_settings.list_name] Current TLEs

November 3rd 2013 PST

HST 1 20580U 90037B 13306.49423873 .00002977 00000-0 19765-3 0 3661 2 20580 028.4705 085.8554 0003499 029.7230 024.5333 15.04100784 90533 ISS (ZARYA) 1 25544U 98067A 13307.36788258 .00015801 00000-0 28631-3 0 9416 2 25544 051.6486 138.7624 0001526 111.6783 310.6784 15.49797608856299 CXO 1 25867U 99040B 13308.09069878 -.00000303 00000-0 00000+0 0 9707 2 25867 076.1741 331.5890 8421019 276.3912 359.9709 00.37804885 11063 ____________________________________________________________________ These 2-Line ...Continue Reading

[list_settings.list_name] Current TLEs

November 2nd 2013 PST

HST 1 20580U 90037B 13304.84738596 .00003773 00000-0 25376-3 0 3658 2 20580 028.4699 096.6586 0003401 013.3074 106.0650 15.04092233 90298 ISS (ZARYA) 1 25544U 98067A 13306.40103234 .00016389 00000-0 29695-3 0 9351 2 25544 051.6487 143.5505 0001547 108.7137 315.8243 15.49768884856140 CXO 1 25867U 99040B 13308.09069878 -.00000303 00000-0 00000+0 0 9707 2 25867 076.1741 331.5890 8421019 276.3912 359.9709 00.37804885 11063 ____________________________________________________________________ These 2-Line ...Continue Reading

[list_settings.list_name] Current TLEs

November 1st 2013 PST

HST 1 20580U 90037B 13304.84738596 .00003773 00000-0 25376-3 0 3658 2 20580 028.4699 096.6586 0003401 013.3074 106.0650 15.04092233 90298 ISS (ZARYA) 1 25544U 98067A 13305.43430963 .00016836 00000-0 30514-3 0 9275 2 25544 051.6497 148.3375 0001488 105.4679 322.0627 15.49738179855990 CXO 1 25867U 99040B 13305.44497683 -.00000230 00000-0 00000+0 0 9699 2 25867 076.1600 331.7683 8422146 276.3858 359.9207 00.37806117 11052 ____________________________________________________________________ These 2-Line ...Continue Reading

[list_settings.list_name] Current TLEs

October 30th 2013 PST

HST 1 20580U 90037B 13302.51008569 .00003937 00000-0 26544-3 0 3638 2 20580 028.4693 111.9923 0003279 348.8998 049.7084 15.04077861 89935 ISS (ZARYA) 1 25544U 98067A 13303.24929522 .00009881 00000-0 18307-3 0 9162 2 25544 051.6499 159.1586 0001772 106.9813 002.4747 15.49655291855656 CXO 1 25867U 99040B 13305.44497683 -.00000230 00000-0 00000+0 0 9699 2 25867 076.1600 331.7683 8422146 276.3858 359.9207 00.37806117 11052 ____________________________________________________________________ These 2-Line ...Continue Reading

[list_settings.list_name] Current TLEs

October 29th 2013 PST

HST 1 20580U 90037B 13300.93864644 .00003255 00000-0 21738-3 0 3628 2 20580 028.4693 122.3014 0003241 332.5482 180.4412 15.04070986 89703 ISS (ZARYA) 1 25544U 98067A 13302.21607818 .00023325 00000-0 42066-3 0 9101 2 25544 051.6506 164.2746 0001606 096.1526 005.4762 15.49647108855497 CXO 1 25867U 99040B 13302.80080619 -.00000110 00000-0 00000+0 0 9689 2 25867 076.1462 331.9337 8421798 276.4046 359.9890 00.37801961 11047 ____________________________________________________________________ These 2-Line ...Continue Reading

[list_settings.list_name] Current TLEs

October 28th 2013 PST

HST 1 20580U 90037B 13300.93864644 .00003255 00000-0 21738-3 0 3628 2 20580 028.4693 122.3014 0003241 332.5482 180.4412 15.04070986 89703 ISS (ZARYA) 1 25544U 98067A 13301.39164618 .00008944 00000-0 16682-3 0 9032 2 25544 051.6488 168.3534 0001870 100.0064 079.3593 15.49599616855369 CXO 1 25867U 99040B 13302.80080619 -.00000110 00000-0 00000+0 0 9689 2 25867 076.1462 331.9337 8421798 276.4046 359.9890 00.37801961 11047 ____________________________________________________________________ These 2-Line ...Continue Reading

[list_settings.list_name] Current TLEs

October 27th 2013 PST

HST 1 20580U 90037B 13299.81549769 .00002461 00000-0 16144-3 0 3612 2 20580 028.4694 129.6702 0003250 321.6293 217.9006 15.04066460 89535 ISS (ZARYA) 1 25544U 98067A 13300.38910880 .00008703 00000-0 16264-3 0 8959 2 25544 051.6482 173.3163 0001910 095.0794 247.9137 15.49580042855208 CXO 1 25867U 99040B 13302.80080619 -.00000110 00000-0 00000+0 0 9689 2 25867 076.1462 331.9337 8421798 276.4046 359.9890 00.37801961 11047 ____________________________________________________________________ These 2-Line ...Continue Reading

[list_settings.list_name] Current TLEs

October 26th 2013 PST

HST 1 20580U 90037B 13298.79975676 .00002713 00000-0 17917-3 0 3606 2 20580 028.4694 136.3327 0003154 308.1136 120.6958 15.04066929 89370 ISS (ZARYA) 1 25544U 98067A 13299.42402778 .00008519 00000-0 15949-3 0 8889 2 25544 051.6480 178.0961 0002167 094.6212 261.1551 15.49562528855059 CXO 1 25867U 99040B 13300.15658341 -.00000067 00000-0 00000+0 0 9678 2 25867 076.1319 332.0640 8423138 276.4491 359.9858 00.37798829 11032 ____________________________________________________________________ These 2-Line ...Continue Reading
  • This mailing list is a public mailing list - anyone may join or leave, at any time.
  • This mailing list is announce-only.

International Space Station (ISS) / Hubble Space Telescope (HST) / Chandra X-Ray Observatory Orbital Data via EMAIL

Privacy Policy:

Private list